{"data":{"norad_id":53552,"intl_designator":"2022-101AB","name":"STARLINK-4495","alt_names":[],"object_type":"PAYLOAD","status":"ACTIVE","operator":null,"country":"US","launch_date":"2022-08-19","launch_site_code":"AFETR","launch_vehicle":null,"mission":null,"orbit_class":"UNKNOWN","rcs_meters":null,"size_class":null,"mass_kg":null,"dimensions":null,"purposes":["comms"],"wikipedia_slug":null,"has_3d_model":false,"image_url":null,"decayed_at":null,"tle_current":{"epoch":"2026-09-20T13:04:20.297568Z","epoch_age_seconds":74451,"freshness":"FRESH","line1":"1 53552U 22101AB  26263.54467937  .00000338  00000+0  39355-4 0  9992","line2":"2 53552  53.1602 268.7221 0001325  83.6092 276.5050 15.08833835226375","mean_motion":15.08833835,"eccentricity":0.0001325,"inclination_deg":53.1602,"raan_deg":268.7221,"arg_perigee_deg":83.6092,"mean_anomaly_deg":276.505,"bstar":3.9355e-5,"rev_number":22637,"period_min":95.437944629602,"perigee_km":538.84561131855,"apogee_km":540.67885461529,"semimajor_km":6917.8992329669,"source":"CELESTRAK","updated_at":"2026-09-21T09:00:32.924665Z"}}}